TimeCDT,TemperatureF,Dew PointF,Humidity,Sea Level PressureIn,VisibilityMPH,Wind Direction,Wind SpeedMPH,Gust SpeedMPH,PrecipitationIn,Events,Conditions,WindDirDegrees,DateUTC
12:53 AM,73.0,60.1,64,29.98,10.0,Calm,Calm,-,N/A,,Clear,0,2013-07-13 05:53:00
1:53 AM,68.0,57.9,70,29.97,10.0,Calm,Calm,-,N/A,,Clear,0,2013-07-13 06:53:00
2:53 AM,68.0,57.9,70,29.97,10.0,Calm,Calm,-,N/A,,Clear,0,2013-07-13 07:53:00
3:53 AM,62.1,57.9,86,29.98,10.0,ENE,3.5,-,N/A,,Clear,70,2013-07-13 08:53:00
4:53 AM,62.1,57.0,84,29.98,10.0,NE,4.6,-,N/A,,Clear,40,2013-07-13 09:53:00
5:53 AM,62.1,57.0,84,30.00,10.0,NE,3.5,-,N/A,,Clear,50,2013-07-13 10:53:00
6:53 AM,61.0,57.9,90,30.01,8.0,NE,3.5,-,N/A,,Clear,50,2013-07-13 11:53:00
7:53 AM,69.1,59.0,70,30.02,9.0,ENE,4.6,-,N/A,,Clear,60,2013-07-13 12:53:00
8:53 AM,73.0,60.1,64,30.02,10.0,ENE,4.6,-,N/A,,Clear,60,2013-07-13 13:53:00
9:53 AM,80.1,62.1,54,30.01,10.0,Variable,3.5,-,N/A,,Clear,0,2013-07-13 14:53:00
10:53 AM,82.9,55.9,39,30.02,10.0,Calm,Calm,-,N/A,,Clear,0,2013-07-13 15:53:00
11:53 AM,87.1,55.9,35,30.01,10.0,NE,8.1,-,N/A,,Clear,40,2013-07-13 16:53:00
12:53 PM,89.1,55.0,31,29.99,10.0,Variable,5.8,-,N/A,,Clear,0,2013-07-13 17:53:00
1:53 PM,90.0,55.9,31,29.97,10.0,Variable,5.8,-,N/A,,Clear,0,2013-07-13 18:53:00
2:53 PM,91.0,57.0,32,29.95,10.0,Variable,6.9,17.3,N/A,,Clear,0,2013-07-13 19:53:00
3:53 PM,90.0,55.9,31,29.95,10.0,NNE,8.1,-,N/A,,Clear,30,2013-07-13 20:53:00
4:53 PM,87.1,57.0,36,29.94,10.0,NE,6.9,-,N/A,,Clear,50,2013-07-13 21:53:00
5:53 PM,84.9,60.1,43,29.94,10.0,Variable,3.5,-,N/A,,Clear,0,2013-07-13 22:53:00
6:53 PM,84.0,61.0,46,29.93,10.0,NE,4.6,-,N/A,,Clear,50,2013-07-13 23:53:00
7:53 PM,81.0,62.1,52,29.93,10.0,Calm,Calm,-,N/A,,Clear,0,2013-07-14 00:53:00
8:53 PM,78.1,62.1,58,29.94,10.0,Calm,Calm,-,N/A,,Clear,0,2013-07-14 01:53:00
9:53 PM,78.1,61.0,56,29.94,10.0,Calm,Calm,-,N/A,,Clear,0,2013-07-14 02:53:00
10:53 PM,75.9,62.1,62,29.95,10.0,Calm,Calm,-,N/A,,Clear,0,2013-07-14 03:53:00
11:53 PM,75.9,61.0,60,29.96,10.0,East,3.5,-,N/A,,Clear,80,2013-07-14 04:53:00